#timestamp,LO_Frequency,Hit,StdDev 
1614996015.5,286046996.7,N
1614996035.4,286046997.8,N
1614996055.2,286046999.3,N
1614996075.1,286046998.9,N
1614996076.0,286046998.9,N
1614996095.8,286047001.2,N
1614996115.6,286046996.5,N
1614996135.5,286046997.0,N
1614996155.3,286046999.0,N
1614996175.1,286047000.2,N
1614996195.9,286047002.2,N
1614996215.7,286047004.3,N
1614996235.6,286046999.9,N
1614996255.4,286047003.7,N
1614996275.2,286047005.9,N
1614996295.1,286047007.0,N
1614996296.0,286047007.0,N
1614996315.8,286047010.8,Y
1614996335.6,286047008.0,P
1614996355.5,286047010.0,N
1614996375.3,286047013.5,P
1614996395.2,286047013.8,N
1614996415.9,286047018.4,Y
1614996435.7,286047010.0,P
1614996455.6,286047009.6,P
1614996475.4,286047011.9,P
1614996495.3,286047010.7,Y
1614996515.1,286046996.9,P
1614996516.0,286046996.9,N
1614996535.8,286046996.8,N
1614996555.7,286046997.3,N
1614996575.5,286046994.1,N
1614996595.3,286046992.1,N
1614996615.2,286046992.7,N
1614996635.0,286046992.4,N
1614996635.9,286046992.4,N
1614996655.8,286046992.1,N
1614996675.6,286046998.0,N
1614996695.4,286046994.3,N
1614996715.3,286046992.3,N
1614996735.1,286046991.9,N
1614996755.8,286046993.9,N
1614996775.7,286046995.8,N
1614996795.5,286046995.8,N
1614996815.4,286046993.8,N
1614996835.2,286046993.5,N
1614996855.0,286046993.3,N
1614996855.9,286046993.3,N
1614996875.8,286046996.2,N
1614996895.6,286046995.8,N
1614996915.4,286046995.0,N
1614996935.3,286046995.7,N
1614996955.1,286046997.5,N
1614996975.8,286046997.8,N
1614996995.7,286046995.0,N
1614997015.5,286046995.5,N
1614997035.4,286046993.5,N
1614997055.2,286046994.8,N
1614997075.0,286046996.3,N
1614997075.9,286046996.3,N
1614997095.8,286046994.6,Y
1614997115.6,286046997.0,P
1614997135.5,286046998.2,N
1614997155.3,286046998.9,N
1614997175.1,286046998.6,N
1614997195.9,286046999.7,N
1614997215.7,286047002.4,N
1614997235.5,286046998.6,N
1614997255.4,286046998.2,N
1614997275.2,286047000.4,N
1614997295.0,286047002.8,N
1614997296.0,286047002.8,N
1614997315.8,286047001.8,N
1614997335.6,286047003.7,N
1614997355.5,286047001.8,N
1614997375.3,286047002.7,N
1614997395.1,286047002.5,N
1614997415.9,286046999.4,N
1614997435.7,286046998.8,N
1614997455.6,286046998.4,N
1614997475.4,286046998.3,N
1614997495.2,286046997.4,N
1614997515.1,286046997.5,N
1614997516.0,286046997.5,N
1614997535.8,286047001.0,N
1614997555.6,286046996.7,N
1614997575.5,286046997.4,N
1614997595.3,286046997.2,N
1614997615.2,286046998.0,N
1614997635.9,286046995.2,N
1614997655.7,286046995.2,N
1614997675.6,286046994.4,N
1614997695.4,286046992.1,Y
1614997715.2,286046994.7,P
1614997735.1,286046994.6,N
1614997736.0,286046994.6,N
1614997755.8,286046996.2,N
1614997775.7,286046993.3,Y
1614997795.5,286046997.0,P
1614997815.3,286046994.9,P
1614997835.2,286046994.6,P
1614997855.0,286046993.5,Y
1614997855.9,286046993.5,P
1614997875.8,286046998.8,N
1614997895.6,286046996.8,N
1614997915.4,286046997.0,N
1614997935.3,286047001.2,N
1614997955.1,286046998.4,N
1614997975.8,286046998.8,N
1614997995.7,286046997.1,N
1614998015.5,286046998.6,N
1614998035.3,286046997.1,N
1614998055.2,286046996.6,N
1614998075.0,286046999.2,N
1614998075.9,286046999.2,N
1614998095.8,286046996.5,N
1614998115.6,286047000.8,N
1614998135.4,286046999.3,N
1614998155.3,286047000.7,N
1614998175.1,286046998.6,N
1614998195.9,286046996.7,N
1614998215.7,286046997.3,N
1614998235.5,286046997.1,N
1614998255.4,286046999.0,N
1614998275.2,286046999.6,N
1614998295.0,286046997.8,N
1614998295.9,286046997.8,N
1614998315.8,286046999.2,N
1614998335.6,286046999.1,N
1614998355.5,286046998.4,N
1614998375.3,286046998.6,N
1614998395.1,286046995.5,N
1614998415.9,286046997.6,N
1614998435.7,286046997.8,N
1614998455.5,286046997.2,N
1614998475.4,286046996.7,N
1614998495.2,286046999.2,N
1614998515.1,286046998.4,N
1614998516.0,286046998.4,N
1614998535.8,286046997.7,N
1614998555.6,286046996.2,Y
1614998575.5,286046996.2,P
1614998595.3,286046993.3,P
1614998615.1,286046999.6,N
1614998635.9,286046996.8,N
1614998655.7,286046997.7,N
1614998675.6,286046998.6,N
1614998695.4,286046997.3,N
1614998715.2,286046998.8,N
1614998735.1,286046996.6,N
1614998736.0,286046996.6,N
1614998755.8,286046997.0,N
1614998775.6,286046998.6,N
1614998795.5,286046999.5,N
1614998815.3,286046997.2,N
1614998835.2,286046998.9,N
1614998855.9,286047001.1,N
1614998875.7,286046998.2,N
1614998895.6,286046998.8,N
1614998915.4,286046999.2,N
1614998935.2,286046998.4,N
1614998955.1,286046997.9,N
1614998956.0,286046997.9,N
1614998975.8,286047001.1,N
1614998995.7,286047001.1,N
1614999015.5,286047000.0,N
1614999035.3,286046999.7,N
1614999055.2,286047000.4,N
1614999075.9,286046998.2,N
1614999095.7,286046997.4,N
1614999115.6,286046998.3,N
1614999135.4,286046998.1,N
1614999155.2,286047001.0,N
1614999175.1,286046996.5,N
1614999176.0,286046996.5,N
1614999195.8,286046997.3,N
1614999215.7,286046999.3,N
1614999235.5,286046998.3,N
1614999255.3,286047000.9,N
1614999275.2,286047001.6,N
1614999295.0,286046998.6,N
1614999295.9,286046998.6,N
1614999315.7,286046999.7,N
1614999335.6,286046998.3,N
1614999355.4,286046998.9,N
1614999375.3,286046997.3,N
1614999395.1,286046999.3,N
1614999396.0,286046999.3,N
1614999415.8,286047001.2,N
1614999435.7,286047002.7,N
1614999455.5,286047000.5,N
1614999475.3,286047001.4,N
1614999495.2,286047001.3,N
1614999515.0,286047002.5,N
1614999515.9,286047002.5,N
1614999535.8,286047002.3,N
1614999555.6,286047000.4,N
1614999575.4,286046998.9,N
1614999595.3,286047000.8,N
